Location: Peterborough
(44.3091°N, 78.3197°W)
Time: 16:14:09
(UTC-04:00)

A-11 Canister half - Pass Details

Date: 12 December 2023
Orbit: 1515 x 1685 km, 47.2° (Epoch: 16 July)

Event Time Altitude Azimuth Distance (km) Brightness Sun altitude
Exits shadow 02:32:02 27° 96° (E) 2,769 10.5 -53.5°
Drops below altitude 10° 02:35:53 10° 99° (E) 3,920 11.5 -52.9°
Sets 02:39:05 0° 101° (E) 4,919 12.1 -52.4°
